Home   Weather   Hugo   Past weeks
Flag for USA

Past Weather in Hugo, Minnesota, USA — Yesterday and Last 2 Weeks

Now
70 °F

Scattered clouds.


Feels Like: 70 °F
Forecast: 68 / 46 °F
Wind: 9 mph from North

Location: Minneapolis / Blaine

Current Time: Apr 7, 2020 at 5:34:11 pm

Latest Report: Apr 7, 2020 at 4:45 pm


Visibility: 10 mi

Pressure: 29.65 "Hg

Humidity: 38%

Dew Point: 43 °F

Location of HugoLocation

Past Weather in Hugo — Graph

°F

Hugo Temperature Yesterday

Maximum temperature yesterday: 61 °F (at 3:45 pm)
Minimum temperature yesterday: 45 °F (at 2:15 am)
Average temperature yesterday: 50 °F

High & Low Weather Summary for the Past Weeks

 TemperatureHumidityPressure
High68 °F (Apr 7, 3:46 pm)100% (Mar 23, 10:56 pm)30.30 "Hg (Mar 23, 10:56 pm)
Low19 °F (Apr 4, 4:55 am)18% (Mar 30, 1:45 pm)29.37 "Hg (Mar 29, 2:15 am)
Average42 °F73%29.94 "Hg
* Reported Mar 23 3:45 pm — Apr 7 3:46 pm, Hugo. Weather by CustomWeather, © 2020

Note: Actual official high and low records may vary slightly from our data, if they occured in-between our weather recording intervals... More about our weather records

Hugo Weather History for the Previous 24 Hours

Scroll right to see more
 ConditionsComfort  
Time TempWeatherWind HumidityBarometerVisibility
3:46 pm
Tue, Apr 7
68 °FScattered clouds.9 mph43%29.65 "Hg10 mi
2:45 pm64 °FPassing clouds.6 mph56%29.66 "Hg10 mi
1:45 pm61 °FScattered clouds.8 mph77%29.67 "Hg8 mi
1:05 pm59 °FOvercast.12 mph82%29.68 "Hg7 mi
12:45 pm57 °FFog.9 mph94%29.68 "Hg5 mi
12:07 pm55 °FFog.9 mph100%29.68 "Hg4 mi
11:45 am55 °FFog.9 mph100%29.67 "Hg2 mi
10:45 am54 °FFog.No wind100%29.65 "Hg0 mi
9:45 am54 °FFog.No wind100%29.66 "Hg0 mi
8:45 am54 °FFog.No wind100%29.66 "Hg1 mi
7:45 am54 °FFog.6 mph100%29.64 "Hg1 mi
6:45 am52 °FFog.10 mph100%29.63 "Hg1 mi
6:36 am52 °FFog.9 mph100%29.64 "Hg2 mi
5:56 am52 °FFog.9 mph100%29.65 "Hg3 mi
5:35 am52 °FFog.10 mph94%29.65 "Hg4 mi
5:16 am52 °FFog.8 mph94%29.68 "Hg4 mi
4:55 am52 °FFog.5 mph94%29.70 "Hg5 mi
4:35 am52 °FFog.3 mph94%29.69 "Hg5 mi
3:56 am52 °FFog.6 mph94%29.68 "Hg5 mi
3:35 am52 °FFog.8 mph94%29.68 "Hg5 mi
3:16 am52 °FFog.9 mph94%29.68 "Hg4 mi
2:35 am52 °FLight rain. Low clouds.No wind94%29.76 "Hg5 mi
2:15 am52 °FDrizzle. Low clouds.3 mph94%29.78 "Hg5 mi
1:55 am52 °FLight rain. Low clouds.8 mph88%29.73 "Hg5 mi
1:36 am52 °FLight rain. Overcast.13 mph88%29.74 "Hg5 mi
1:16 am52 °FOvercast.6 mph82%29.78 "Hg7 mi
12:55 am52 °FOvercast.9 mph82%29.76 "Hg7 mi
12:36 am52 °FOvercast.7 mph82%29.75 "Hg7 mi
12:15 am52 °FOvercast.7 mph82%29.75 "Hg7 mi
11:56 pm
Mon, Apr 6
54 °FOvercast.7 mph77%29.76 "Hg7 mi
11:35 pm54 °FOvercast.9 mph77%29.76 "Hg10 mi
11:15 pm54 °FOvercast.12 mph77%29.76 "Hg10 mi
10:55 pm54 °FOvercast.8 mph77%29.77 "Hg10 mi
10:35 pm54 °FPassing clouds.9 mph77%29.78 "Hg10 mi
10:15 pm54 °FPassing clouds.8 mph77%29.79 "Hg10 mi
9:55 pm54 °FMostly cloudy.10 mph77%29.80 "Hg10 mi
9:35 pm54 °FMostly cloudy.13 mph77%29.78 "Hg10 mi
9:15 pm54 °FOvercast.12 mph77%29.80 "Hg10 mi
8:45 pm55 °FOvercast.10 mph72%29.79 "Hg10 mi
7:45 pm57 °FOvercast.10 mph67%29.79 "Hg10 mi
6:45 pm57 °FOvercast.10 mph67%29.80 "Hg10 mi
5:45 pm57 °FOvercast.10 mph63%29.80 "Hg10 mi
Weather by CustomWeather, © 2020

See weather overview

Advertising